Skip Page Navigation
NASA JPL Caltech
NASA Logo - Jet Propulsion Laboratory + View the NASA Portal
+ Center for Near-Earth Object Studies
JPL Home Earth Solar System Stars & Galaxies Technology
JPL Solar System Dynamics
BODIES ORBITS EPHEMERIDES TOOLS PHYSICAL DATA DISCOVERY FAQ SITE MAP
JPL Small-Body Database Browser
Search: [ help ]  
152535 (2007 BR8)
Classification: Inner Main-belt Asteroid          SPK-ID: 2152535
Ephemeris | Orbit Diagram | Orbital Elements | Mission Design | Physical Parameters | Discovery Circumstances ]

[ show orbit diagram ]
Orbital Elements at Epoch 2459200.5 (2020-Dec-17.0) TDB
Reference: JPL 20 (heliocentric ecliptic J2000)
 Element Value Uncertainty (1-sigma)   Units 
e .06165325016342638 6.6556e-08  
a 1.952285789974214 8.4491e-09 au
q 1.831921025774431 1.3077e-07 au
i 18.19347009681783 6.6702e-06 deg
node 326.1947543955459 1.2044e-05 deg
peri 177.2590805708318 3.6925e-05 deg
M 26.76605275487334 3.5892e-05 deg
tp 2459126.420960018771
(2020-Oct-03.92096002)
9.9114e-05 TDB
period 996.3536513013422
2.73
6.468e-06
1.771e-08
d
yr
n .3613174895578516 2.3456e-09 deg/d
Q 2.072650554173997 8.97e-09 au
  Orbit Determination Parameters
   # obs. used (total)      502  
   data-arc span      8195 days (22.44 yr)  
   first obs. used      1997-07-29  
   last obs. used      2020-01-05  
   planetary ephem.      DE441  
   SB-pert. ephem.      SB441-N16  
   condition code      0  
   norm. resid. RMS      .49534  
   source      ORB  
   producer      Otto Matic  
   solution date      2021-Apr-13 19:27:32  

Additional Information
 Earth MOID = .844013 au 
 Jupiter MOID = 2.93834 au 
 T_jup = 3.827 
[ show covariance matrix ]

Ephemeris | Orbit Diagram | Orbital Elements | Mission Design | Physical Parameters | Discovery Circumstances ]

Physical Parameter Table
Parameter Symbol Value Units Sigma Reference Notes
absolute magnitude H 16.7   n/a MPO439909  

152535 (2007 BR8)          Discovered 2007-Jan-16 by CSS at Catalina
Reference: 20070303/Numbers.arcLast Updated: 2007-03-07

Alternate Designations
 2007 BR8 = 2000 SY280 
Ephemeris | Orbit Diagram | Orbital Elements | Mission Design | Physical Parameters | Discovery Circumstances ]
ABOUT SSD CREDITS/AWARDS PRIVACY/COPYRIGHT GLOSSARY LINKS
FirstGov 2021-Apr-19 08:27 UT
(server date/time)  
NASA Home Page
Site Manager:   Ryan S. Park
Webmaster  Alan B. Chamberlin